Hourly Weather Ryabiki

Today, 9 May, Sunday

Time Temperature Precipitation Wind Pressure Humidity
00:00 +1°C° 0 mm 4 mps 742 mmHg 79%
01:00 0°C° 0 mm 4 mps 742 mmHg 81%
02:00 0°C° 0 mm 4 mps 743 mmHg 84%
03:00 -1°C° 0 mm 4 mps 743 mmHg 84%
04:00 -1°C° 0 mm 4 mps 744 mmHg 84%
05:00 -1°C° 0 mm 4 mps 744 mmHg 84%
06:00 0°C° 0 mm 4 mps 745 mmHg 76%
07:00 +2°C° 0 mm 5 mps 745 mmHg 69%
08:00 +5°C° 0 mm 5 mps 746 mmHg 61%
09:00 +6°C° 0 mm 5 mps 746 mmHg 56%
10:00 +7°C° 0 mm 6 mps 746 mmHg 51%
11:00 +8°C° 0 mm 6 mps 747 mmHg 46%
12:00 +9°C° 0 mm 6 mps 747 mmHg 44%
13:00 +9°C° 0 mm 5 mps 747 mmHg 41%
14:00 +10°C° 0 mm 5 mps 748 mmHg 39%
15:00 +10°C° 0 mm 5 mps 748 mmHg 42%
16:00 +11°C° 0 mm 4 mps 748 mmHg 45%
17:00 +11°C° 0 mm 3 mps 748 mmHg 48%
18:00 +9°C° 0 mm 3 mps 749 mmHg 54%
19:00 +7°C° 0 mm 2 mps 749 mmHg 60%
20:00 +6°C° 0 mm 2 mps 750 mmHg 66%
21:00 +5°C° 0 mm 2 mps 750 mmHg 68%
22:00 +4°C° 0 mm 2 mps 751 mmHg 69%
23:00 +4°C° 0 mm 2 mps 751 mmHg 71%

Tomorrow, 10 May, Monday

Time Temperature Precipitation Wind Pressure Humidity
00:00 +4°C° 0 mm 1 mps 751 mmHg 71%
01:00 +4°C° 0 mm 1 mps 752 mmHg 70%
02:00 +4°C° 0 mm 1 mps 752 mmHg 70%
03:00 +4°C° 0 mm 1 mps 752 mmHg 69%
04:00 +4°C° 0 mm 1 mps 753 mmHg 69%
05:00 +4°C° 0 mm 1 mps 753 mmHg 69%
06:00 +6°C° 0 mm 1 mps 753 mmHg 64%
07:00 +7°C° 0 mm 2 mps 753 mmHg 59%
08:00 +9°C° 0 mm 2 mps 754 mmHg 54%
09:00 +12°C° 0 mm 2 mps 754 mmHg 51%
10:00 +13°C° 0 mm 2 mps 754 mmHg 48%
11:00 +14°C° 0 mm 2 mps 754 mmHg 44%
12:00 +15°C° 0 mm 2 mps 753 mmHg 44%
13:00 +15°C° 0 mm 2 mps 753 mmHg 43%
14:00 +16°C° 0 mm 2 mps 753 mmHg 43%
15:00 +16°C° 0 mm 1 mps 753 mmHg 44%
16:00 +16°C° 0 mm 1 mps 753 mmHg 45%
17:00 +15°C° 0 mm 1 mps 753 mmHg 47%
18:00 +14°C° 0 mm 1 mps 753 mmHg 52%
19:00 +12°C° 0 mm 1 mps 753 mmHg 58%
20:00 +10°C° 0 mm 1 mps 753 mmHg 64%
21:00 +9°C° 0 mm 1 mps 753 mmHg 66%
22:00 +8°C° 0 mm 2 mps 753 mmHg 68%
23:00 +7°C° 0 mm 2 mps 753 mmHg 69%

Day after tomorrow, 11 May, Tuesday

Time Temperature Precipitation Wind Pressure Humidity
00:00 +6°C° 0 mm 2 mps 753 mmHg 71%
01:00 +6°C° 0 mm 2 mps 754 mmHg 72%
02:00 +5°C° 0 mm 2 mps 754 mmHg 73%
03:00 +5°C° 0 mm 2 mps 754 mmHg 74%
04:00 +5°C° 0 mm 2 mps 754 mmHg 75%
05:00 +5°C° 0 mm 2 mps 753 mmHg 75%
06:00 +7°C° 0 mm 3 mps 753 mmHg 69%
07:00 +9°C° 0 mm 3 mps 753 mmHg 63%
08:00 +11°C° 0 mm 3 mps 753 mmHg 57%
09:00 +13°C° 0 mm 4 mps 753 mmHg 52%
10:00 +14°C° 0 mm 4 mps 753 mmHg 48%
11:00 +15°C° 0 mm 4 mps 753 mmHg 43%
12:00 +17°C° 0 mm 4 mps 752 mmHg 43%
13:00 +18°C° 0 mm 4 mps 752 mmHg 44%
14:00 +19°C° 0 mm 4 mps 752 mmHg 44%
15:00 +19°C° 0 mm 4 mps 752 mmHg 49%
16:00 +19°C° 0 mm 3 mps 751 mmHg 55%
17:00 +18°C° 0 mm 3 mps 751 mmHg 60%
18:00 +17°C° 0 mm 3 mps 751 mmHg 67%
19:00 +14°C° 0 mm 3 mps 751 mmHg 75%
20:00 +12°C° 0 mm 3 mps 751 mmHg 82%
21:00 +11°C° 0 mm 3 mps 751 mmHg 85%
22:00 +11°C° 0 mm 3 mps 751 mmHg 89%
23:00 +10°C° 0 mm 3 mps 751 mmHg 92%

12 May, Wednesday

Time Temperature Precipitation Wind Pressure Humidity
00:00 +10°C° 0 mm 3 mps 751 mmHg 93%
01:00 +10°C° 0 mm 2 mps 750 mmHg 95%
02:00 +10°C° 0 mm 2 mps 750 mmHg 96%
03:00 +9°C° 0 mm 2 mps 750 mmHg 96%
04:00 +9°C° 0 mm 2 mps 750 mmHg 95%
05:00 +9°C° 0 mm 2 mps 750 mmHg 95%
06:00 +9°C° 0 mm 2 mps 750 mmHg 92%
07:00 +10°C° 0 mm 2 mps 750 mmHg 89%
08:00 +10°C° 0 mm 2 mps 750 mmHg 86%
09:00 +9°C° 0.6 mm 2 mps 750 mmHg 89%
10:00 +9°C° 0.6 mm 2 mps 750 mmHg 91%
11:00 +8°C° 0.6 mm 2 mps 749 mmHg 93%
12:00 +9°C° 0.4 mm 2 mps 749 mmHg 89%
13:00 +10°C° 0.4 mm 2 mps 749 mmHg 85%
14:00 +11°C° 0.4 mm 3 mps 748 mmHg 81%
15:00 +11°C° 0 mm 3 mps 748 mmHg 80%
16:00 +12°C° 0 mm 3 mps 748 mmHg 79%
17:00 +12°C° 0 mm 4 mps 747 mmHg 78%
18:00 +11°C° 0 mm 4 mps 747 mmHg 82%
19:00 +10°C° 0 mm 3 mps 747 mmHg 87%
20:00 +9°C° 0 mm 3 mps 746 mmHg 91%
21:00 +8°C° 0 mm 4 mps 746 mmHg 92%
22:00 +8°C° 0 mm 4 mps 745 mmHg 93%
23:00 +8°C° 0 mm 4 mps 745 mmHg 93%

13 May, Thursday

Time Temperature Precipitation Wind Pressure Humidity
00:00 +8°C° 0.1 mm 5 mps 745 mmHg 94%
01:00 +8°C° 0.1 mm 5 mps 744 mmHg 94%
02:00 +8°C° 0.1 mm 5 mps 744 mmHg 94%
03:00 +8°C° 0.4 mm 5 mps 744 mmHg 93%
04:00 +8°C° 0.4 mm 5 mps 743 mmHg 91%
05:00 +8°C° 0.4 mm 6 mps 743 mmHg 90%
06:00 +8°C° 0.1 mm 6 mps 743 mmHg 87%
07:00 +9°C° 0.1 mm 7 mps 743 mmHg 84%
08:00 +9°C° 0.1 mm 7 mps 744 mmHg 80%
09:00 +10°C° 0.1 mm 7 mps 744 mmHg 75%
10:00 +11°C° 0.1 mm 7 mps 744 mmHg 69%
11:00 +12°C° 0.1 mm 7 mps 744 mmHg 63%
12:00 +14°C° 0 mm 7 mps 744 mmHg 61%
13:00 +14°C° 0 mm 6 mps 744 mmHg 59%
14:00 +15°C° 0 mm 6 mps 744 mmHg 57%
15:00 +14°C° 0 mm 5 mps 744 mmHg 62%
16:00 +14°C° 0 mm 4 mps 744 mmHg 66%
17:00 +14°C° 0 mm 3 mps 744 mmHg 70%
18:00 +14°C° 0.1 mm 2 mps 744 mmHg 76%
19:00 +13°C° 0.1 mm 2 mps 744 mmHg 81%
20:00 +12°C° 0.1 mm 1 mps 744 mmHg 86%
21:00 +12°C° 0.5 mm 2 mps 743 mmHg 90%
22:00 +12°C° 0.5 mm 2 mps 743 mmHg 94%
23:00 +11°C° 0.5 mm 3 mps 743 mmHg 97%

14 May, Friday

Time Temperature Precipitation Wind Pressure Humidity
00:00 +12°C° 0.5 mm 3 mps 742 mmHg 97%
01:00 +12°C° 0.5 mm 3 mps 742 mmHg 96%
02:00 +12°C° 0.5 mm 4 mps 741 mmHg 95%
03:00 +12°C° 0.2 mm 4 mps 741 mmHg 95%
04:00 +12°C° 0.2 mm 4 mps 741 mmHg 95%
05:00 +12°C° 0.2 mm 4 mps 741 mmHg 95%
06:00 +12°C° 0.6 mm 4 mps 740 mmHg 94%
07:00 +13°C° 0.6 mm 4 mps 740 mmHg 93%
08:00 +13°C° 0.6 mm 4 mps 740 mmHg 93%
09:00 +14°C° 0.2 mm 4 mps 740 mmHg 90%
10:00 +15°C° 0.2 mm 4 mps 740 mmHg 87%
11:00 +17°C° 0.2 mm 4 mps 740 mmHg 84%
12:00 +17°C° 1.2 mm 4 mps 740 mmHg 86%
13:00 +15°C° 1.2 mm 4 mps 740 mmHg 89%
14:00 +15°C° 1.2 mm 4 mps 740 mmHg 91%
15:00 +17°C° 0.2 mm 3 mps 740 mmHg 88%
16:00 +17°C° 0.2 mm 3 mps 740 mmHg 84%
17:00 +18°C° 0.2 mm 3 mps 740 mmHg 81%
18:00 +17°C° 0.1 mm 3 mps 740 mmHg 84%
19:00 +16°C° 0.1 mm 2 mps 740 mmHg 87%
20:00 +15°C° 0.1 mm 2 mps 740 mmHg 90%
21:00 +14°C° 0 mm 2 mps 740 mmHg 91%
22:00 +13°C° 0 mm 2 mps 740 mmHg 92%
23:00 +13°C° 0 mm 2 mps 741 mmHg 93%
Show more